Time,TemperatureF,DewpointF,PressureIn,WindDirection,WindDirectionDegrees,WindSpeedMPH,WindSpeedGustMPH,Humidity,HourlyPrecipIn,Conditions,Clouds,dailyrainin,SoftwareType,DateUTC
2013-03-20 00:00:00,64.3,62.2,29.95,West,273,0.0,0.0,93,0.00,,---,0.00,VWS V14.00,2013-03-20 04:00:00,
2013-03-20 00:05:00,64.1,62.3,29.95,West,273,0.0,0.0,94,0.00,,---,0.00,VWS V14.00,2013-03-20 04:05:00,
2013-03-20 00:10:00,64.0,62.2,29.95,West,273,0.0,0.0,94,0.00,,---,0.00,VWS V14.00,2013-03-20 04:10:00,
2013-03-20 00:15:00,63.9,62.1,29.95,West,273,0.0,0.0,94,0.00,,---,0.00,VWS V14.00,2013-03-20 04:15:00,
2013-03-20 00:20:00,63.7,62.0,29.95,West,273,0.0,0.0,94,0.00,,---,0.00,VWS V14.00,2013-03-20 04:20:00,
2013-03-20 00:25:00,63.5,61.8,29.95,West,273,0.0,0.0,94,0.00,,---,0.00,VWS V14.00,2013-03-20 04:25:00,
2013-03-20 00:30:00,63.4,61.7,29.95,West,273,0.0,0.0,94,0.00,,---,0.00,VWS V14.00,2013-03-20 04:30:00,
2013-03-20 00:35:00,63.3,61.5,29.95,West,273,0.0,0.0,94,0.00,,---,0.00,VWS V14.00,2013-03-20 04:35:00,
2013-03-20 00:40:00,63.3,61.8,29.94,West,273,0.0,0.0,95,0.00,,---,0.00,VWS V14.00,2013-03-20 04:40:00,
2013-03-20 00:45:00,63.2,61.8,29.94,West,273,0.0,0.0,95,0.00,,---,0.00,VWS V14.00,2013-03-20 04:45:00,
2013-03-20 00:50:00,63.2,61.8,29.94,West,273,0.0,0.0,95,0.00,,---,0.00,VWS V14.00,2013-03-20 04:50:00,
2013-03-20 00:55:00,63.2,61.8,29.94,West,273,0.0,0.0,95,0.00,,---,0.00,VWS V14.00,2013-03-20 04:55:00,
2013-03-20 01:00:00,63.1,61.7,29.94,West,273,0.0,0.0,95,0.00,,---,0.00,VWS V14.00,2013-03-20 05:00:00,
2013-03-20 01:05:00,63.1,61.7,29.94,West,273,0.0,0.0,95,0.00,,---,0.00,VWS V14.00,2013-03-20 05:05:00,
2013-03-20 01:10:00,63.0,61.5,29.94,West,273,0.0,0.0,95,0.00,,---,0.00,VWS V14.00,2013-03-20 05:10:00,
2013-03-20 01:15:00,62.8,61.3,29.93,West,273,0.0,0.0,95,0.00,,---,0.00,VWS V14.00,2013-03-20 05:15:00,
2013-03-20 01:20:00,62.7,61.2,29.93,West,273,0.0,0.0,95,0.00,,---,0.00,VWS V14.00,2013-03-20 05:20:00,
2013-03-20 01:25:00,62.6,61.2,29.94,West,273,0.0,0.0,95,0.00,,---,0.00,VWS V14.00,2013-03-20 05:25:00,
2013-03-20 01:30:00,62.6,61.2,29.93,West,273,0.0,0.0,95,0.00,,---,0.00,VWS V14.00,2013-03-20 05:30:00,
2013-03-20 01:35:00,62.5,61.0,29.93,West,273,0.0,0.0,95,0.00,,---,0.00,VWS V14.00,2013-03-20 05:35:00,
2013-03-20 01:40:00,62.4,61.0,29.92,West,273,0.0,0.0,95,0.00,,---,0.00,VWS V14.00,2013-03-20 05:40:00,
2013-03-20 01:45:00,62.5,61.3,29.93,West,273,0.0,0.0,96,0.00,,---,0.00,VWS V14.00,2013-03-20 05:45:00,
2013-03-20 01:50:00,62.4,61.2,29.92,West,273,0.0,0.0,96,0.00,,---,0.00,VWS V14.00,2013-03-20 05:50:00,
2013-03-20 01:55:00,62.3,61.2,29.92,West,273,0.0,0.0,96,0.00,,---,0.00,VWS V14.00,2013-03-20 05:55:00,
2013-03-20 02:00:00,62.3,61.2,29.92,West,273,0.0,0.0,96,0.00,,---,0.00,VWS V14.00,2013-03-20 06:00:00,
2013-03-20 02:05:00,62.2,60.8,29.92,West,273,0.0,0.0,95,0.00,,---,0.00,VWS V14.00,2013-03-20 06:05:00,
2013-03-20 02:10:00,62.1,60.7,29.92,West,273,0.0,0.0,95,0.00,,---,0.00,VWS V14.00,2013-03-20 06:10:00,
2013-03-20 02:15:00,62.0,60.6,29.92,West,273,0.0,0.0,95,0.00,,---,0.00,VWS V14.00,2013-03-20 06:15:00,
2013-03-20 02:20:00,61.9,60.5,29.92,West,273,0.0,0.0,95,0.00,,---,0.00,VWS V14.00,2013-03-20 06:20:00,
2013-03-20 02:25:00,61.9,60.8,29.92,West,273,0.0,0.0,96,0.00,,---,0.00,VWS V14.00,2013-03-20 06:25:00,
2013-03-20 02:30:00,61.9,60.8,29.92,West,273,0.0,0.0,96,0.00,,---,0.00,VWS V14.00,2013-03-20 06:30:00,
2013-03-20 02:35:00,61.8,60.7,29.92,West,273,0.0,0.0,96,0.00,,---,0.00,VWS V14.00,2013-03-20 06:35:00,
2013-03-20 02:40:00,61.7,60.5,29.92,West,273,0.0,0.0,96,0.00,,---,0.00,VWS V14.00,2013-03-20 06:40:00,
2013-03-20 02:45:00,61.6,60.5,29.92,West,273,0.0,0.0,96,0.00,,---,0.00,VWS V14.00,2013-03-20 06:45:00,
2013-03-20 02:50:00,61.6,60.5,29.92,West,273,0.0,0.0,96,0.00,,---,0.00,VWS V14.00,2013-03-20 06:50:00,
2013-03-20 02:55:00,61.6,60.5,29.91,West,273,0.0,0.0,96,0.00,,---,0.00,VWS V14.00,2013-03-20 06:55:00,
2013-03-20 03:00:00,61.5,60.3,29.91,West,273,0.0,0.0,96,0.00,,---,0.00,VWS V14.00,2013-03-20 07:00:00,
2013-03-20 03:05:00,61.4,60.2,29.91,West,273,0.0,0.0,96,0.00,,---,0.00,VWS V14.00,2013-03-20 07:05:00,
2013-03-20 03:10:00,61.3,60.2,29.91,West,273,0.0,0.0,96,0.00,,---,0.00,VWS V14.00,2013-03-20 07:10:00,
2013-03-20 03:15:00,61.3,60.2,29.90,West,273,0.0,0.0,96,0.00,,---,0.00,VWS V14.00,2013-03-20 07:15:00,
2013-03-20 03:20:00,61.4,60.5,29.90,West,273,0.0,0.0,97,0.00,,---,0.00,VWS V14.00,2013-03-20 07:20:00,
2013-03-20 03:25:00,61.4,60.5,29.90,West,273,0.0,0.0,97,0.00,,---,0.00,VWS V14.00,2013-03-20 07:25:00,
2013-03-20 03:30:00,61.4,60.5,29.90,West,273,0.0,0.0,97,0.00,,---,0.00,VWS V14.00,2013-03-20 07:30:00,
2013-03-20 03:35:00,61.3,60.4,29.90,West,273,0.0,0.0,97,0.00,,---,0.00,VWS V14.00,2013-03-20 07:35:00,
2013-03-20 03:40:00,61.4,60.5,29.89,West,273,0.0,0.0,97,0.00,,---,0.00,VWS V14.00,2013-03-20 07:40:00,
2013-03-20 03:45:00,61.4,60.5,29.89,West,273,0.0,0.0,97,0.00,,---,0.00,VWS V14.00,2013-03-20 07:45:00,
2013-03-20 03:50:00,61.4,60.5,29.89,West,273,0.0,0.0,97,0.00,,---,0.00,VWS V14.00,2013-03-20 07:50:00,
2013-03-20 03:55:00,61.5,60.6,29.89,West,273,0.0,0.0,97,0.00,,---,0.00,VWS V14.00,2013-03-20 07:55:00,
2013-03-20 04:00:00,61.7,60.8,29.89,West,273,0.0,0.0,97,0.00,,---,0.00,VWS V14.00,2013-03-20 08:00:00,
2013-03-20 04:05:00,61.6,60.7,29.89,West,273,0.0,0.0,97,0.00,,---,0.00,VWS V14.00,2013-03-20 08:05:00,
2013-03-20 04:10:00,61.6,60.7,29.90,West,273,0.0,0.0,97,0.00,,---,0.00,VWS V14.00,2013-03-20 08:10:00,
2013-03-20 04:15:00,61.5,60.6,29.89,West,273,0.0,0.0,97,0.00,,---,0.00,VWS V14.00,2013-03-20 08:15:00,
2013-03-20 04:20:00,61.3,60.4,29.89,West,273,0.0,0.0,97,0.00,,---,0.00,VWS V14.00,2013-03-20 08:20:00,
2013-03-20 04:25:00,61.2,60.3,29.89,West,273,0.0,0.0,97,0.00,,---,0.00,VWS V14.00,2013-03-20 08:25:00,
2013-03-20 04:30:00,61.1,60.2,29.89,West,273,0.0,0.0,97,0.00,,---,0.00,VWS V14.00,2013-03-20 08:30:00,
2013-03-20 04:35:00,60.9,60.0,29.89,West,273,0.0,0.0,97,0.00,,---,0.00,VWS V14.00,2013-03-20 08:35:00,
2013-03-20 04:40:00,60.7,59.8,29.90,West,273,0.0,0.0,97,0.00,,---,0.00,VWS V14.00,2013-03-20 08:40:00,
2013-03-20 04:45:00,60.6,59.8,29.90,West,273,0.0,0.0,97,0.00,,---,0.00,VWS V14.00,2013-03-20 08:45:00,
2013-03-20 04:50:00,60.4,59.3,29.90,West,273,0.0,0.0,96,0.00,,---,0.00,VWS V14.00,2013-03-20 08:50:00,
2013-03-20 04:55:00,60.3,59.2,29.90,West,273,0.0,0.0,96,0.00,,---,0.00,VWS V14.00,2013-03-20 08:55:00,
2013-03-20 05:00:00,60.3,59.5,29.90,West,273,0.0,0.0,97,0.00,,---,0.00,VWS V14.00,2013-03-20 09:00:00,
2013-03-20 05:05:00,60.3,59.5,29.90,West,273,0.0,0.0,97,0.00,,---,0.00,VWS V14.00,2013-03-20 09:05:00,
2013-03-20 05:10:00,60.3,59.5,29.90,West,273,0.0,0.0,97,0.00,,---,0.00,VWS V14.00,2013-03-20 09:10:00,
2013-03-20 05:15:00,60.4,59.5,29.90,West,273,0.0,0.0,97,0.00,,---,0.00,VWS V14.00,2013-03-20 09:15:00,
2013-03-20 05:20:00,60.3,59.5,29.90,West,273,0.0,0.0,97,0.00,,---,0.00,VWS V14.00,2013-03-20 09:20:00,
2013-03-20 05:25:00,60.3,59.5,29.90,West,273,0.0,0.0,97,0.00,,---,0.00,VWS V14.00,2013-03-20 09:25:00,
2013-03-20 05:30:00,60.2,59.3,29.90,West,273,0.0,0.0,97,0.00,,---,0.00,VWS V14.00,2013-03-20 09:30:00,
2013-03-20 05:35:00,60.3,59.5,29.90,West,273,0.0,0.0,97,0.00,,---,0.00,VWS V14.00,2013-03-20 09:35:00,
2013-03-20 05:40:00,60.2,59.3,29.90,West,273,0.0,0.0,97,0.00,,---,0.00,VWS V14.00,2013-03-20 09:40:00,
2013-03-20 05:45:00,60.1,59.2,29.90,West,273,0.0,0.0,97,0.00,,---,0.00,VWS V14.00,2013-03-20 09:45:00,
2013-03-20 05:50:00,60.1,59.2,29.90,West,273,0.0,0.0,97,0.00,,---,0.00,VWS V14.00,2013-03-20 09:50:00,
2013-03-20 05:55:00,60.2,59.3,29.90,West,273,0.0,0.0,97,0.00,,---,0.00,VWS V14.00,2013-03-20 09:55:00,
2013-03-20 06:00:00,60.2,59.3,29.90,West,273,0.0,0.0,97,0.00,,---,0.00,VWS V14.00,2013-03-20 10:00:00,
2013-03-20 06:05:00,60.0,59.2,29.90,West,273,0.0,0.0,97,0.00,,---,0.00,VWS V14.00,2013-03-20 10:05:00,
2013-03-20 06:10:00,60.0,59.2,29.90,West,273,0.0,0.0,97,0.00,,---,0.00,VWS V14.00,2013-03-20 10:10:00,
2013-03-20 06:15:00,60.0,59.2,29.90,West,273,0.0,0.0,97,0.00,,---,0.00,VWS V14.00,2013-03-20 10:15:00,
2013-03-20 06:20:00,59.9,59.0,29.90,West,273,0.0,0.0,97,0.00,,---,0.00,VWS V14.00,2013-03-20 10:20:00,
2013-03-20 06:25:00,59.9,59.0,29.90,West,273,0.0,0.0,97,0.00,,---,0.00,VWS V14.00,2013-03-20 10:25:00,
2013-03-20 06:30:00,60.1,59.2,29.90,West,273,0.0,0.0,97,0.00,,---,0.00,VWS V14.00,2013-03-20 10:30:00,
2013-03-20 06:35:00,60.2,59.3,29.90,West,273,0.0,0.0,97,0.00,,---,0.00,VWS V14.00,2013-03-20 10:35:00,
2013-03-20 06:40:00,60.2,59.3,29.90,West,273,0.0,0.0,97,0.00,,---,0.00,VWS V14.00,2013-03-20 10:40:00,
2013-03-20 06:45:00,60.1,59.2,29.90,West,273,0.0,0.0,97,0.00,,---,0.00,VWS V14.00,2013-03-20 10:45:00,
2013-03-20 06:50:00,59.9,59.0,29.90,West,273,0.0,0.0,97,0.00,,---,0.00,VWS V14.00,2013-03-20 10:50:00,
2013-03-20 06:55:00,59.9,59.0,29.91,West,273,0.0,0.0,97,0.00,,---,0.00,VWS V14.00,2013-03-20 10:55:00,
2013-03-20 07:00:00,59.8,59.0,29.91,West,273,0.0,0.0,97,0.00,,---,0.00,VWS V14.00,2013-03-20 11:00:00,
2013-03-20 07:05:00,59.8,59.0,29.92,West,273,0.0,0.0,97,0.00,,---,0.00,VWS V14.00,2013-03-20 11:05:00,
2013-03-20 07:10:00,59.8,59.0,29.92,West,273,1.0,2.0,97,0.00,,---,0.00,VWS V14.00,2013-03-20 11:10:00,
2013-03-20 07:15:00,60.0,59.2,29.93,West,273,0.0,0.0,97,0.00,,---,0.00,VWS V14.00,2013-03-20 11:15:00,
2013-03-20 07:20:00,60.0,59.2,29.94,West,273,0.0,0.0,97,0.00,,---,0.00,VWS V14.00,2013-03-20 11:20:00,
2013-03-20 07:25:00,60.0,59.2,29.93,West,273,0.0,0.0,97,0.00,,---,0.01,VWS V14.00,2013-03-20 11:25:00,
2013-03-20 07:30:00,60.0,59.2,29.94,West,273,0.0,0.0,97,0.00,,---,0.01,VWS V14.00,2013-03-20 11:30:00,
2013-03-20 07:35:00,59.9,59.0,29.94,West,273,0.0,0.0,97,0.00,,---,0.01,VWS V14.00,2013-03-20 11:35:00,
2013-03-20 07:40:00,59.9,59.0,29.94,West,273,0.0,0.0,97,0.00,,---,0.01,VWS V14.00,2013-03-20 11:40:00,
2013-03-20 07:45:00,59.9,59.0,29.93,West,273,0.0,0.0,97,0.00,,---,0.01,VWS V14.00,2013-03-20 11:45:00,
2013-03-20 07:50:00,60.0,59.2,29.93,West,273,0.0,0.0,97,0.00,,---,0.01,VWS V14.00,2013-03-20 11:50:00,
2013-03-20 07:55:00,60.0,59.2,29.93,West,273,0.0,0.0,97,0.00,,---,0.01,VWS V14.00,2013-03-20 11:55:00,
2013-03-20 08:00:00,60.2,59.6,29.94,West,273,0.0,0.0,98,0.00,,---,0.01,VWS V14.00,2013-03-20 12:00:00,
2013-03-20 08:05:00,60.3,59.7,29.94,West,273,0.0,0.0,98,0.00,,---,0.01,VWS V14.00,2013-03-20 12:05:00,
2013-03-20 08:10:00,60.5,59.9,29.94,West,273,0.0,0.0,98,0.00,,---,0.01,VWS V14.00,2013-03-20 12:10:00,
2013-03-20 08:15:00,60.7,60.1,29.95,West,273,0.0,0.0,98,0.00,,---,0.01,VWS V14.00,2013-03-20 12:15:00,
2013-03-20 08:20:00,60.8,60.2,29.95,West,273,0.0,0.0,98,0.00,,---,0.01,VWS V14.00,2013-03-20 12:20:00,
2013-03-20 08:25:00,61.0,60.4,29.95,West,273,0.0,0.0,98,0.00,,---,0.01,VWS V14.00,2013-03-20 12:25:00,
2013-03-20 08:30:00,61.2,60.6,29.95,West,273,0.0,0.0,98,0.00,,---,0.01,VWS V14.00,2013-03-20 12:30:00,
2013-03-20 08:35:00,61.3,60.7,29.95,West,273,0.0,0.0,98,0.00,,---,0.01,VWS V14.00,2013-03-20 12:35:00,
2013-03-20 08:40:00,61.4,60.8,29.95,West,273,0.0,0.0,98,0.00,,---,0.01,VWS V14.00,2013-03-20 12:40:00,
2013-03-20 08:45:00,61.6,61.0,29.95,West,273,0.0,0.0,98,0.00,,---,0.01,VWS V14.00,2013-03-20 12:45:00,
2013-03-20 08:50:00,61.9,61.3,29.95,West,273,0.0,0.0,98,0.00,,---,0.01,VWS V14.00,2013-03-20 12:50:00,
2013-03-20 08:55:00,62.1,61.5,29.95,West,273,0.0,0.0,98,0.00,,---,0.01,VWS V14.00,2013-03-20 12:55:00,
2013-03-20 09:00:00,62.3,61.7,29.95,West,273,0.0,0.0,98,0.00,,---,0.01,VWS V14.00,2013-03-20 13:00:00,
2013-03-20 09:05:00,62.5,61.9,29.96,West,273,0.0,0.0,98,0.00,,---,0.01,VWS V14.00,2013-03-20 13:05:00,
2013-03-20 09:10:00,62.8,62.2,29.97,West,273,0.0,0.0,98,0.00,,---,0.01,VWS V14.00,2013-03-20 13:10:00,
2013-03-20 09:15:00,63.0,62.4,29.97,West,273,0.0,0.0,98,0.00,,---,0.01,VWS V14.00,2013-03-20 13:15:00,
2013-03-20 09:20:00,63.2,62.6,29.96,West,273,0.0,0.0,98,0.00,,---,0.01,VWS V14.00,2013-03-20 13:20:00,
2013-03-20 09:25:00,63.4,62.8,29.96,West,273,0.0,1.0,98,0.00,,---,0.01,VWS V14.00,2013-03-20 13:25:00,
2013-03-20 09:30:00,63.6,63.0,29.95,West,273,0.0,3.0,98,0.00,,---,0.01,VWS V14.00,2013-03-20 13:30:00,
2013-03-20 09:35:00,63.7,63.1,29.95,West,273,0.0,0.0,98,0.00,,---,0.01,VWS V14.00,2013-03-20 13:35:00,
2013-03-20 09:40:00,63.9,63.3,29.95,West,273,0.0,0.0,98,0.00,,---,0.01,VWS V14.00,2013-03-20 13:40:00,
2013-03-20 09:45:00,64.1,63.5,29.95,West,273,0.0,0.0,98,0.00,,---,0.01,VWS V14.00,2013-03-20 13:45:00,
2013-03-20 09:50:00,64.1,63.5,29.95,West,273,0.0,0.0,98,0.00,,---,0.01,VWS V14.00,2013-03-20 13:50:00,
2013-03-20 09:55:00,64.5,63.6,29.94,NW,308,4.0,5.0,97,0.00,,---,0.01,VWS V14.00,2013-03-20 13:55:00,
2013-03-20 10:00:00,65.1,64.2,29.94,NW,319,0.0,0.0,97,0.00,,---,0.01,VWS V14.00,2013-03-20 14:00:00,
2013-03-20 10:05:00,65.7,64.5,29.96,SSE,155,4.0,6.0,96,0.00,,---,0.01,VWS V14.00,2013-03-20 14:05:00,
2013-03-20 10:10:00,66.1,64.3,29.97,South,188,5.0,5.0,94,0.00,,---,0.01,VWS V14.00,2013-03-20 14:10:00,
2013-03-20 10:15:00,66.0,64.2,29.98,SW,225,5.0,7.0,94,0.00,,---,0.01,VWS V14.00,2013-03-20 14:15:00,
2013-03-20 10:20:00,65.9,63.8,29.99,SW,219,0.0,4.0,93,0.00,,---,0.01,VWS V14.00,2013-03-20 14:20:00,
2013-03-20 10:25:00,66.0,63.9,29.98,SW,220,0.0,0.0,93,0.00,,---,0.01,VWS V14.00,2013-03-20 14:25:00,
2013-03-20 10:30:00,66.2,64.4,29.99,SW,229,0.0,0.0,94,0.00,,---,0.01,VWS V14.00,2013-03-20 14:30:00,
2013-03-20 10:35:00,66.4,64.3,29.99,SW,229,0.0,0.0,93,0.00,,---,0.01,VWS V14.00,2013-03-20 14:35:00,
2013-03-20 10:40:00,66.7,64.0,29.97,WSW,256,0.0,5.0,91,0.00,,---,0.01,VWS V14.00,2013-03-20 14:40:00,
2013-03-20 10:45:00,66.8,64.1,29.96,NW,314,0.0,0.0,91,0.00,,---,0.01,VWS V14.00,2013-03-20 14:45:00,
2013-03-20 10:50:00,66.9,64.5,29.97,NW,323,0.0,0.0,92,0.00,,---,0.01,VWS V14.00,2013-03-20 14:50:00,
2013-03-20 10:55:00,67.2,64.2,29.98,SW,222,0.0,3.0,90,0.00,,---,0.01,VWS V14.00,2013-03-20 14:55:00,
2013-03-20 11:00:00,67.5,63.8,29.98,SSW,211,5.0,7.0,88,0.00,,---,0.01,VWS V14.00,2013-03-20 15:00:00,
2013-03-20 11:05:00,68.1,64.4,29.98,SSW,205,7.0,7.0,88,0.00,,---,0.01,VWS V14.00,2013-03-20 15:05:00,
2013-03-20 11:10:00,68.6,64.2,29.98,SW,223,1.0,7.0,86,0.00,,---,0.01,VWS V14.00,2013-03-20 15:10:00,
2013-03-20 11:15:00,69.0,63.6,29.97,SW,221,5.0,8.0,83,0.00,,---,0.01,VWS V14.00,2013-03-20 15:15:00,
2013-03-20 11:20:00,69.3,63.6,29.96,SSW,213,2.0,5.0,82,0.00,,---,0.01,VWS V14.00,2013-03-20 15:20:00,
2013-03-20 11:25:00,69.5,63.4,29.96,SW,224,6.0,8.0,81,0.00,,---,0.01,VWS V14.00,2013-03-20 15:25:00,
2013-03-20 11:30:00,69.7,63.3,29.94,SW,231,4.0,5.0,80,0.00,,---,0.01,VWS V14.00,2013-03-20 15:30:00,
2013-03-20 11:35:00,70.1,63.7,29.94,SW,224,0.0,4.0,80,0.00,,---,0.01,VWS V14.00,2013-03-20 15:35:00,
2013-03-20 11:40:00,70.4,63.2,29.92,SW,223,3.0,5.0,78,0.00,,---,0.01,VWS V14.00,2013-03-20 15:40:00,
2013-03-20 11:45:00,70.6,62.7,29.91,SW,219,4.0,5.0,76,0.00,,---,0.01,VWS V14.00,2013-03-20 15:45:00,
2013-03-20 11:50:00,71.0,63.1,29.91,SSW,211,0.0,4.0,76,0.00,,---,0.01,VWS V14.00,2013-03-20 15:50:00,
2013-03-20 11:55:00,71.6,64.0,29.90,SW,219,0.0,0.0,77,0.00,,---,0.01,VWS V14.00,2013-03-20 15:55:00,
2013-03-20 12:00:00,72.3,63.2,29.90,SW,217,0.0,0.0,73,0.00,,---,0.01,VWS V14.00,2013-03-20 16:00:00,
2013-03-20 12:05:00,73.4,63.8,29.89,South,184,0.0,5.0,72,0.00,,---,0.01,VWS V14.00,2013-03-20 16:05:00,
2013-03-20 12:10:00,74.3,64.3,29.89,SE,144,6.0,8.0,71,0.00,,---,0.01,VWS V14.00,2013-03-20 16:10:00,
2013-03-20 12:15:00,75.3,64.8,29.89,SE,140,0.0,1.0,70,0.00,,---,0.01,VWS V14.00,2013-03-20 16:15:00,
2013-03-20 12:20:00,76.1,63.9,29.89,SE,144,4.0,8.0,66,0.00,,---,0.01,VWS V14.00,2013-03-20 16:20:00,
2013-03-20 12:25:00,76.6,64.0,29.89,South,186,0.0,7.0,65,0.00,,---,0.01,VWS V14.00,2013-03-20 16:25:00,
2013-03-20 12:30:00,76.6,63.5,29.90,SSE,163,5.0,7.0,64,0.00,,---,0.01,VWS V14.00,2013-03-20 16:30:00,
2013-03-20 12:35:00,76.7,64.1,29.90,SSW,205,4.0,5.0,65,0.00,,---,0.01,VWS V14.00,2013-03-20 16:35:00,
2013-03-20 12:40:00,77.0,63.0,29.90,SSW,212,4.0,9.0,62,0.00,,---,0.01,VWS V14.00,2013-03-20 16:40:00,
2013-03-20 12:45:00,77.4,63.4,29.90,SSE,161,5.0,7.0,62,0.00,,---,0.01,VWS V14.00,2013-03-20 16:45:00,
2013-03-20 12:50:00,77.8,63.3,29.90,SW,221,7.0,11.0,61,0.00,,---,0.01,VWS V14.00,2013-03-20 16:50:00,
2013-03-20 12:55:00,77.7,62.7,29.90,SW,225,0.0,7.0,60,0.00,,---,0.01,VWS V14.00,2013-03-20 16:55:00,
2013-03-20 13:00:00,77.8,63.8,29.90,SW,219,0.0,0.0,62,0.00,,---,0.01,VWS V14.00,2013-03-20 17:00:00,
2013-03-20 13:05:00,78.0,63.5,29.90,SSW,203,0.0,5.0,61,0.00,,---,0.01,VWS V14.00,2013-03-20 17:05:00,
2013-03-20 13:10:00,78.6,63.6,29.90,West,281,1.0,6.0,60,0.00,,---,0.01,VWS V14.00,2013-03-20 17:10:00,
2013-03-20 13:15:00,78.9,63.8,29.90,SW,217,0.0,1.0,60,0.00,,---,0.01,VWS V14.00,2013-03-20 17:15:00,
2013-03-20 13:20:00,79.5,64.9,29.90,SW,232,0.0,3.0,61,0.00,,---,0.01,VWS V14.00,2013-03-20 17:20:00,
2013-03-20 13:25:00,80.0,63.9,29.90,WNW,292,4.0,7.0,58,0.00,,---,0.01,VWS V14.00,2013-03-20 17:25:00,
2013-03-20 13:30:00,80.3,62.2,29.90,WSW,244,2.0,9.0,54,0.00,,---,0.01,VWS V14.00,2013-03-20 17:30:00,
2013-03-20 13:35:00,80.3,62.7,29.90,SW,236,0.0,3.0,55,0.00,,---,0.01,VWS V14.00,2013-03-20 17:35:00,
2013-03-20 13:40:00,80.4,62.2,29.89,SW,222,0.0,1.0,54,0.00,,---,0.01,VWS V14.00,2013-03-20 17:40:00,
2013-03-20 13:45:00,80.4,62.2,29.89,West,260,0.0,0.0,54,0.00,,---,0.01,VWS V14.00,2013-03-20 17:45:00,
2013-03-20 13:50:00,80.4,62.2,29.89,WSW,244,0.0,4.0,54,0.00,,---,0.01,VWS V14.00,2013-03-20 17:50:00,
2013-03-20 13:55:00,80.4,61.7,29.89,WNW,283,4.0,6.0,53,0.00,,---,0.01,VWS V14.00,2013-03-20 17:55:00,
2013-03-20 14:00:00,80.0,58.6,29.89,West,277,7.0,10.0,48,0.00,,---,0.01,VWS V14.00,2013-03-20 18:00:00,
2013-03-20 14:05:00,79.5,58.1,29.88,WNW,299,11.0,11.0,48,0.00,,---,0.01,VWS V14.00,2013-03-20 18:05:00,
2013-03-20 14:10:00,79.2,58.4,29.88,NW,308,6.0,11.0,49,0.00,,---,0.01,VWS V14.00,2013-03-20 18:10:00,
2013-03-20 14:15:00,79.2,57.2,29.88,WNW,296,11.0,14.0,47,0.00,,---,0.01,VWS V14.00,2013-03-20 18:15:00,
2013-03-20 14:20:00,79.1,57.8,29.88,West,270,12.0,13.0,48,0.00,,---,0.01,VWS V14.00,2013-03-20 18:20:00,
2013-03-20 14:25:00,78.9,57.6,29.88,WSW,257,6.0,10.0,48,0.00,,---,0.01,VWS V14.00,2013-03-20 18:25:00,
2013-03-20 14:30:00,78.8,58.0,29.88,WNW,287,13.0,13.0,49,0.00,,---,0.01,VWS V14.00,2013-03-20 18:30:00,
2013-03-20 14:35:00,78.5,58.9,29.88,WNW,286,9.0,10.0,51,0.00,,---,0.01,VWS V14.00,2013-03-20 18:35:00,
2013-03-20 14:40:00,78.2,59.2,29.87,West,279,4.0,10.0,52,0.00,,---,0.01,VWS V14.00,2013-03-20 18:40:00,
2013-03-20 14:45:00,78.0,59.0,29.87,West,273,4.0,10.0,52,0.00,,---,0.01,VWS V14.00,2013-03-20 18:45:00,
2013-03-20 14:50:00,77.9,59.4,29.87,WNW,285,10.0,15.0,53,0.00,,---,0.01,VWS V14.00,2013-03-20 18:50:00,
2013-03-20 14:55:00,77.9,59.9,29.86,West,277,7.0,10.0,54,0.00,,---,0.01,VWS V14.00,2013-03-20 18:55:00,
2013-03-20 15:00:00,77.9,60.5,29.86,West,281,2.0,9.0,55,0.00,,---,0.01,VWS V14.00,2013-03-20 19:00:00,
2013-03-20 15:05:00,78.1,60.1,29.86,West,276,4.0,7.0,54,0.00,,---,0.01,VWS V14.00,2013-03-20 19:05:00,
2013-03-20 15:10:00,78.4,60.9,29.85,WNW,291,1.0,6.0,55,0.00,,---,0.01,VWS V14.00,2013-03-20 19:10:00,
2013-03-20 15:15:00,78.7,60.7,29.85,West,267,4.0,8.0,54,0.00,,---,0.01,VWS V14.00,2013-03-20 19:15:00,
2013-03-20 15:20:00,78.7,60.7,29.85,WSW,252,2.0,8.0,54,0.00,,---,0.01,VWS V14.00,2013-03-20 19:20:00,
2013-03-20 15:25:00,78.5,60.0,29.85,WSW,239,8.0,12.0,53,0.00,,---,0.01,VWS V14.00,2013-03-20 19:25:00,
2013-03-20 15:30:00,77.9,59.4,29.85,SW,223,8.0,15.0,53,0.00,,---,0.01,VWS V14.00,2013-03-20 19:30:00,
2013-03-20 15:35:00,77.7,59.8,29.84,SW,227,3.0,10.0,54,0.00,,---,0.01,VWS V14.00,2013-03-20 19:35:00,
2013-03-20 15:40:00,77.6,60.7,29.84,SW,216,6.0,6.0,56,0.00,,---,0.01,VWS V14.00,2013-03-20 19:40:00,
2013-03-20 15:45:00,77.7,60.3,29.84,SW,233,2.0,6.0,55,0.00,,---,0.01,VWS V14.00,2013-03-20 19:45:00,
2013-03-20 15:50:00,78.0,59.0,29.84,WSW,242,6.0,18.0,52,0.00,,---,0.01,VWS V14.00,2013-03-20 19:50:00,
2013-03-20 15:55:00,77.8,58.2,29.84,SW,232,4.0,10.0,51,0.00,,---,0.01,VWS V14.00,2013-03-20 19:55:00,
2013-03-20 16:00:00,77.8,58.2,29.84,WNW,290,5.0,16.0,51,0.00,,---,0.01,VWS V14.00,2013-03-20 20:00:00,
2013-03-20 16:05:00,77.8,58.8,29.84,West,274,0.0,11.0,52,0.00,,---,0.01,VWS V14.00,2013-03-20 20:05:00,
2013-03-20 16:10:00,77.6,58.6,29.83,West,274,5.0,8.0,52,0.00,,---,0.01,VWS V14.00,2013-03-20 20:10:00,
2013-03-20 16:15:00,77.3,58.8,29.83,SW,236,3.0,5.0,53,0.00,,---,0.01,VWS V14.00,2013-03-20 20:15:00,
2013-03-20 16:20:00,77.0,59.1,29.83,West,265,1.0,5.0,54,0.00,,---,0.01,VWS V14.00,2013-03-20 20:20:00,
2013-03-20 16:25:00,76.7,58.8,29.83,WNW,285,7.0,10.0,54,0.00,,---,0.01,VWS V14.00,2013-03-20 20:25:00,
2013-03-20 16:30:00,76.3,56.9,29.83,WNW,284,6.0,10.0,51,0.00,,---,0.01,VWS V14.00,2013-03-20 20:30:00,
2013-03-20 16:35:00,75.9,57.0,29.83,West,270,7.0,11.0,52,0.00,,---,0.01,VWS V14.00,2013-03-20 20:35:00,
2013-03-20 16:40:00,75.5,57.2,29.83,West,275,5.0,6.0,53,0.00,,---,0.01,VWS V14.00,2013-03-20 20:40:00,
2013-03-20 16:45:00,75.4,58.6,29.82,West,269,2.0,2.0,56,0.00,,---,0.01,VWS V14.00,2013-03-20 20:45:00,
2013-03-20 16:50:00,75.2,58.9,29.82,WNW,289,4.0,8.0,57,0.00,,---,0.01,VWS V14.00,2013-03-20 20:50:00,
2013-03-20 16:55:00,75.2,58.9,29.81,West,270,3.0,7.0,57,0.00,,---,0.01,VWS V14.00,2013-03-20 20:55:00,
2013-03-20 17:00:00,75.2,59.4,29.81,WSW,241,0.0,4.0,58,0.00,,---,0.01,VWS V14.00,2013-03-20 21:00:00,
2013-03-20 17:05:00,75.1,59.8,29.80,WSW,242,1.0,4.0,59,0.00,,---,0.01,VWS V14.00,2013-03-20 21:05:00,
2013-03-20 17:10:00,74.9,59.1,29.80,West,266,1.0,8.0,58,0.00,,---,0.01,VWS V14.00,2013-03-20 21:10:00,
2013-03-20 17:15:00,74.8,59.0,29.80,SW,214,0.0,0.0,58,0.00,,---,0.01,VWS V14.00,2013-03-20 21:15:00,
2013-03-20 17:20:00,74.8,59.5,29.80,SW,227,2.0,5.0,59,0.00,,---,0.01,VWS V14.00,2013-03-20 21:20:00,
2013-03-20 17:25:00,74.7,59.0,29.80,West,273,4.0,5.0,58,0.00,,---,0.01,VWS V14.00,2013-03-20 21:25:00,
2013-03-20 17:30:00,74.5,58.8,29.81,West,279,0.0,5.0,58,0.00,,---,0.01,VWS V14.00,2013-03-20 21:30:00,
2013-03-20 17:35:00,74.3,58.6,29.81,West,279,0.0,0.0,58,0.00,,---,0.01,VWS V14.00,2013-03-20 21:35:00,
2013-03-20 17:40:00,74.1,59.3,29.81,West,280,4.0,5.0,60,0.00,,---,0.01,VWS V14.00,2013-03-20 21:40:00,
2013-03-20 17:45:00,73.9,59.6,29.81,WNW,282,0.0,0.0,61,0.00,,---,0.01,VWS V14.00,2013-03-20 21:45:00,
2013-03-20 17:50:00,73.7,59.4,29.82,WNW,282,0.0,2.0,61,0.00,,---,0.01,VWS V14.00,2013-03-20 21:50:00,
2013-03-20 17:55:00,73.5,59.7,29.83,SW,236,2.0,4.0,62,0.00,,---,0.01,VWS V14.00,2013-03-20 21:55:00,
2013-03-20 18:00:00,73.1,59.3,29.84,SW,221,0.0,9.0,62,0.00,,---,0.01,VWS V14.00,2013-03-20 22:00:00,
2013-03-20 18:05:00,72.8,59.5,29.84,SW,232,4.0,6.0,63,0.00,,---,0.01,VWS V14.00,2013-03-20 22:05:00,
2013-03-20 18:10:00,72.5,59.6,29.83,SW,223,0.0,3.0,64,0.00,,---,0.01,VWS V14.00,2013-03-20 22:10:00,
2013-03-20 18:15:00,72.3,59.9,29.84,WSW,238,0.0,2.0,65,0.00,,---,0.01,VWS V14.00,2013-03-20 22:15:00,
2013-03-20 18:20:00,72.2,59.8,29.84,SW,223,3.0,7.0,65,0.00,,---,0.01,VWS V14.00,2013-03-20 22:20:00,
2013-03-20 18:25:00,72.0,60.0,29.85,SW,232,0.0,0.0,66,0.00,,---,0.01,VWS V14.00,2013-03-20 22:25:00,
2013-03-20 18:30:00,71.8,60.7,29.85,West,275,3.0,4.0,68,0.00,,---,0.01,VWS V14.00,2013-03-20 22:30:00,
2013-03-20 18:35:00,71.5,61.2,29.85,West,271,0.0,4.0,70,0.00,,---,0.01,VWS V14.00,2013-03-20 22:35:00,
2013-03-20 18:40:00,71.1,62.0,29.85,SW,221,0.0,0.0,73,0.00,,---,0.01,VWS V14.00,2013-03-20 22:40:00,
2013-03-20 18:45:00,70.4,62.1,29.86,SW,230,3.0,4.0,75,0.00,,---,0.01,VWS V14.00,2013-03-20 22:45:00,
2013-03-20 18:50:00,69.8,61.9,29.88,SW,218,0.0,4.0,76,0.00,,---,0.01,VWS V14.00,2013-03-20 22:50:00,
2013-03-20 18:55:00,69.3,61.8,29.87,WSW,237,0.0,2.0,77,0.00,,---,0.02,VWS V14.00,2013-03-20 22:55:00,
2013-03-20 19:00:00,68.9,62.1,29.87,WSW,243,0.0,2.0,79,0.00,,---,0.02,VWS V14.00,2013-03-20 23:00:00,
2013-03-20 19:05:00,68.4,62.3,29.87,WNW,289,0.0,1.0,81,0.00,,---,0.02,VWS V14.00,2013-03-20 23:05:00,
2013-03-20 19:10:00,67.9,62.5,29.87,WNW,288,0.0,0.0,83,0.00,,---,0.02,VWS V14.00,2013-03-20 23:10:00,
2013-03-20 19:15:00,67.5,62.8,29.87,West,279,1.0,3.0,85,0.00,,---,0.03,VWS V14.00,2013-03-20 23:15:00,
2013-03-20 19:20:00,67.2,62.9,29.86,West,279,6.0,6.0,86,0.00,,---,0.03,VWS V14.00,2013-03-20 23:20:00,
2013-03-20 19:25:00,66.8,62.8,29.86,WNW,298,4.0,6.0,87,0.06,,---,0.04,VWS V14.00,2013-03-20 23:25:00,
2013-03-20 19:30:00,66.6,62.6,29.85,WNW,300,4.0,5.0,87,0.06,,---,0.04,VWS V14.00,2013-03-20 23:30:00,
2013-03-20 19:35:00,66.3,62.6,29.86,NW,312,4.0,6.0,88,0.07,,---,0.05,VWS V14.00,2013-03-20 23:35:00,
2013-03-20 19:40:00,66.1,62.8,29.85,WNW,296,1.0,4.0,89,0.06,,---,0.05,VWS V14.00,2013-03-20 23:40:00,
2013-03-20 19:45:00,65.8,62.5,29.84,NW,309,6.0,6.0,89,0.04,,---,0.05,VWS V14.00,2013-03-20 23:45:00,
2013-03-20 19:50:00,65.7,62.4,29.86,WNW,297,4.0,9.0,89,0.00,,---,0.05,VWS V14.00,2013-03-20 23:50:00,
2013-03-20 19:55:00,65.6,62.6,29.87,West,280,7.0,10.0,90,0.00,,---,0.05,VWS V14.00,2013-03-20 23:55:00,
2013-03-20 20:00:00,65.5,62.2,29.88,WNW,284,6.0,12.0,89,0.00,,---,0.05,VWS V14.00,2013-03-21 00:00:00,
2013-03-20 20:05:00,65.5,62.5,29.88,WNW,282,5.0,5.0,90,0.00,,---,0.06,VWS V14.00,2013-03-21 00:05:00,
2013-03-20 20:10:00,65.4,62.4,29.89,WNW,298,8.0,12.0,90,0.00,,---,0.06,VWS V14.00,2013-03-21 00:10:00,
2013-03-20 20:15:00,65.4,62.4,29.90,WNW,288,5.0,7.0,90,0.00,,---,0.06,VWS V14.00,2013-03-21 00:15:00,
2013-03-20 20:20:00,65.3,62.6,29.91,West,279,8.0,10.0,91,0.06,,---,0.07,VWS V14.00,2013-03-21 00:20:00,
2013-03-20 20:25:00,65.2,62.5,29.91,West,277,1.0,8.0,91,0.06,,---,0.07,VWS V14.00,2013-03-21 00:25:00,
2013-03-20 20:30:00,65.2,62.8,29.92,WNW,295,7.0,7.0,92,0.05,,---,0.08,VWS V14.00,2013-03-21 00:30:00,
2013-03-20 20:35:00,65.1,62.4,29.93,WNW,294,14.0,14.0,91,0.05,,---,0.08,VWS V14.00,2013-03-21 00:35:00,
2013-03-20 20:40:00,65.2,62.2,29.93,NW,315,12.0,19.0,90,0.05,,---,0.08,VWS V14.00,2013-03-21 00:40:00,
2013-03-20 20:45:00,65.1,62.4,29.93,West,278,12.0,15.0,91,0.04,,---,0.08,VWS V14.00,2013-03-21 00:45:00,
2013-03-20 20:50:00,65.1,62.4,29.93,WNW,300,14.0,18.0,91,0.00,,---,0.08,VWS V14.00,2013-03-21 00:50:00,
2013-03-20 20:55:00,65.1,62.4,29.93,WNW,289,12.0,15.0,91,0.00,,---,0.09,VWS V14.00,2013-03-21 00:55:00,
2013-03-20 21:00:00,65.0,62.3,29.93,WNW,299,4.0,5.0,91,0.00,,---,0.09,VWS V14.00,2013-03-21 01:00:00,
2013-03-20 21:05:00,64.9,62.2,29.92,NW,326,10.0,16.0,91,0.00,,---,0.09,VWS V14.00,2013-03-21 01:05:00,
2013-03-20 21:10:00,64.8,62.1,29.91,NW,313,8.0,14.0,91,0.00,,---,0.09,VWS V14.00,2013-03-21 01:10:00,
2013-03-20 21:15:00,64.7,62.0,29.89,WNW,283,0.0,0.0,91,0.00,,---,0.09,VWS V14.00,2013-03-21 01:15:00,
2013-03-20 21:20:00,64.6,61.9,29.90,WNW,290,4.0,6.0,91,0.00,,---,0.09,VWS V14.00,2013-03-21 01:20:00,
2013-03-20 21:25:00,64.5,61.8,29.89,WNW,282,0.0,0.0,91,0.00,,---,0.09,VWS V14.00,2013-03-21 01:25:00,
2013-03-20 21:30:00,64.4,61.7,29.88,WNW,282,0.0,0.0,91,0.00,,---,0.09,VWS V14.00,2013-03-21 01:30:00,
2013-03-20 21:35:00,64.3,61.6,29.88,WNW,282,0.0,0.0,91,0.00,,---,0.09,VWS V14.00,2013-03-21 01:35:00,
2013-03-20 21:40:00,64.3,61.6,29.88,WNW,282,0.0,0.0,91,0.00,,---,0.09,VWS V14.00,2013-03-21 01:40:00,
2013-03-20 21:45:00,64.2,61.5,29.89,WNW,282,0.0,0.0,91,0.00,,---,0.09,VWS V14.00,2013-03-21 01:45:00,
2013-03-20 21:50:00,64.1,61.4,29.88,WNW,282,0.0,0.0,91,0.00,,---,0.09,VWS V14.00,2013-03-21 01:50:00,
2013-03-20 21:55:00,64.0,61.6,29.88,WNW,282,0.0,0.0,92,0.00,,---,0.09,VWS V14.00,2013-03-21 01:55:00,
2013-03-20 22:00:00,63.8,61.4,29.89,WNW,282,0.0,0.0,92,0.00,,---,0.09,VWS V14.00,2013-03-21 02:00:00,
2013-03-20 22:05:00,63.8,61.7,29.89,WNW,282,0.0,0.0,93,0.00,,---,0.09,VWS V14.00,2013-03-21 02:05:00,
2013-03-20 22:10:00,63.7,61.6,29.88,WNW,282,0.0,0.0,93,0.00,,---,0.09,VWS V14.00,2013-03-21 02:10:00,
2013-03-20 22:15:00,63.7,61.6,29.88,WNW,282,0.0,0.0,93,0.00,,---,0.09,VWS V14.00,2013-03-21 02:15:00,
2013-03-20 22:20:00,63.6,61.5,29.89,WNW,282,0.0,0.0,93,0.00,,---,0.09,VWS V14.00,2013-03-21 02:20:00,
2013-03-20 22:25:00,63.5,61.4,29.88,WNW,282,0.0,0.0,93,0.00,,---,0.09,VWS V14.00,2013-03-21 02:25:00,
2013-03-20 22:30:00,63.5,61.8,29.89,WNW,282,0.0,0.0,94,0.00,,---,0.09,VWS V14.00,2013-03-21 02:30:00,
2013-03-20 22:35:00,63.4,61.7,29.89,WNW,282,2.0,2.0,94,0.00,,---,0.09,VWS V14.00,2013-03-21 02:35:00,
2013-03-20 22:40:00,63.4,61.7,29.89,WNW,282,0.0,0.0,94,0.00,,---,0.09,VWS V14.00,2013-03-21 02:40:00,
2013-03-20 22:45:00,63.4,61.7,29.89,WNW,282,0.0,0.0,94,0.00,,---,0.09,VWS V14.00,2013-03-21 02:45:00,
2013-03-20 22:50:00,63.3,61.5,29.90,WNW,282,0.0,0.0,94,0.00,,---,0.09,VWS V14.00,2013-03-21 02:50:00,
2013-03-20 22:55:00,63.3,61.5,29.89,WNW,282,0.0,0.0,94,0.00,,---,0.09,VWS V14.00,2013-03-21 02:55:00,
2013-03-20 23:00:00,63.3,61.5,29.89,WNW,282,0.0,0.0,94,0.00,,---,0.09,VWS V14.00,2013-03-21 03:00:00,
2013-03-20 23:05:00,63.3,61.5,29.89,WNW,282,0.0,0.0,94,0.00,,---,0.09,VWS V14.00,2013-03-21 03:05:00,
2013-03-20 23:10:00,63.3,61.5,29.89,WNW,282,0.0,1.0,94,0.00,,---,0.09,VWS V14.00,2013-03-21 03:10:00,
2013-03-20 23:15:00,63.3,61.5,29.89,West,267,0.0,0.0,94,0.00,,---,0.09,VWS V14.00,2013-03-21 03:15:00,
2013-03-20 23:20:00,63.3,61.5,29.89,West,267,0.0,0.0,94,0.00,,---,0.09,VWS V14.00,2013-03-21 03:20:00,
2013-03-20 23:25:00,63.2,61.5,29.88,West,267,0.0,0.0,94,0.00,,---,0.09,VWS V14.00,2013-03-21 03:25:00,
2013-03-20 23:30:00,63.2,61.5,29.88,West,265,5.0,5.0,94,0.00,,---,0.09,VWS V14.00,2013-03-21 03:30:00,
2013-03-20 23:35:00,63.2,61.5,29.89,West,265,0.0,0.0,94,0.00,,---,0.09,VWS V14.00,2013-03-21 03:35:00,
2013-03-20 23:40:00,63.1,61.3,29.89,West,262,0.0,0.0,94,0.00,,---,0.09,VWS V14.00,2013-03-21 03:40:00,
2013-03-20 23:45:00,63.0,61.2,29.88,West,262,0.0,0.0,94,0.00,,---,0.09,VWS V14.00,2013-03-21 03:45:00,
2013-03-20 23:50:00,63.0,61.5,29.88,West,262,0.0,0.0,95,0.00,,---,0.09,VWS V14.00,2013-03-21 03:50:00,
2013-03-20 23:55:00,63.0,61.5,29.88,West,262,0.0,0.0,95,0.00,,---,0.09,VWS V14.00,2013-03-21 03:55:00,
2013-03-20 23:56:00,62.9,61.5,29.88,West,262,0.0,0.0,95,0.00,,---,0.09,VWS V14.00,2013-03-21 03:56:00,